When you browse on this site, cookies collect data to enhance your experience and personalize the content and advertising you see.
Visit our Privacy Policy to learn more. By continuing to use the site, you agree to this use of cookies and data.
  • Em Portugal
  • Lista de países
  • Para 7 dias
  • Temperatura da água
  • Mapa do tempo
  • Widgets de tempo
  • user-avatar
    Iniciar Sessão

    Previsão horária em Tauragė

    Hoje, 7 Abril, Terça-feira

    Tempo Temperatura Precipitação Vento Pressão Humidade
    00:00 +5°C° 0 mm 3 m/s 771 mmHg 65%
    01:00 +5°C° 0 mm 3 m/s 771 mmHg 67%
    02:00 +5°C° 0 mm 3 m/s 770 mmHg 69%
    03:00 +4°C° 0 mm 3 m/s 770 mmHg 71%
    04:00 +4°C° 0 mm 3 m/s 770 mmHg 73%
    05:00 +5°C° 0 mm 4 m/s 770 mmHg 71%
    06:00 +7°C° 0 mm 4 m/s 770 mmHg 70%
    07:00 +8°C° 0 mm 4 m/s 769 mmHg 69%
    08:00 +10°C° 0 mm 5 m/s 769 mmHg 64%
    09:00 +13°C° 0 mm 5 m/s 769 mmHg 58%
    10:00 +15°C° 0 mm 5 m/s 769 mmHg 53%
    11:00 +16°C° 0 mm 6 m/s 768 mmHg 51%
    12:00 +16°C° 0 mm 6 m/s 768 mmHg 49%
    13:00 +17°C° 0 mm 6 m/s 768 mmHg 47%
    14:00 +16°C° 0 mm 6 m/s 768 mmHg 51%
    15:00 +16°C° 0 mm 6 m/s 768 mmHg 56%
    16:00 +15°C° 0 mm 6 m/s 768 mmHg 60%
    17:00 +13°C° 0 mm 5 m/s 768 mmHg 68%
    18:00 +9°C° 0 mm 5 m/s 768 mmHg 76%
    19:00 +7°C° 0 mm 4 m/s 769 mmHg 84%
    20:00 +8°C° 0 mm 3 m/s 769 mmHg 84%
    21:00 +7°C° 0 mm 3 m/s 770 mmHg 84%
    22:00 +5°C° 0 mm 3 m/s 770 mmHg 84%
    23:00 +6°C° 0 mm 2 m/s 770 mmHg 83%

    Amanhã, 8 Abril, Quarta-feira

    Tempo Temperatura Precipitação Vento Pressão Humidade
    00:00 +6°C° 0 mm 2 m/s 771 mmHg 82%
    01:00 +5°C° 0 mm 2 m/s 771 mmHg 81%
    02:00 +5°C° 0 mm 2 m/s 771 mmHg 83%
    03:00 +5°C° 0 mm 2 m/s 771 mmHg 85%
    04:00 +5°C° 0 mm 1 m/s 771 mmHg 88%
    05:00 +6°C° 0 mm 1 m/s 771 mmHg 83%
    06:00 +7°C° 0 mm 1 m/s 771 mmHg 77%
    07:00 +8°C° 0 mm 1 m/s 772 mmHg 72%
    08:00 +10°C° 0 mm 1 m/s 771 mmHg 65%
    09:00 +12°C° 0 mm 1 m/s 771 mmHg 57%
    10:00 +14°C° 0 mm 1 m/s 771 mmHg 50%
    11:00 +14°C° 0 mm 1 m/s 771 mmHg 48%
    12:00 +15°C° 0 mm 2 m/s 770 mmHg 47%
    13:00 +16°C° 0 mm 2 m/s 770 mmHg 45%
    14:00 +15°C° 0 mm 2 m/s 769 mmHg 46%
    15:00 +15°C° 0 mm 2 m/s 769 mmHg 48%
    16:00 +15°C° 0 mm 2 m/s 768 mmHg 49%
    17:00 +13°C° 0 mm 2 m/s 767 mmHg 55%
    18:00 +11°C° 0 mm 1 m/s 767 mmHg 61%
    19:00 +9°C° 0 mm 1 m/s 767 mmHg 67%
    20:00 +9°C° 0 mm 1 m/s 766 mmHg 68%
    21:00 +9°C° 0 mm 1 m/s 766 mmHg 69%
    22:00 +9°C° 0 mm 1 m/s 765 mmHg 70%
    23:00 +7°C° 0 mm 2 m/s 765 mmHg 71%

    Depois de amanhã, 9 Abril, Quinta-feira

    Tempo Temperatura Precipitação Vento Pressão Humidade
    00:00 +7°C° 0 mm 2 m/s 764 mmHg 73%
    01:00 +7°C° 0 mm 2 m/s 763 mmHg 74%
    02:00 +7°C° 0 mm 2 m/s 763 mmHg 74%
    03:00 +7°C° 0 mm 2 m/s 762 mmHg 74%
    04:00 +6°C° 0 mm 2 m/s 762 mmHg 74%
    05:00 +7°C° 0.4 mm 3 m/s 761 mmHg 78%
    06:00 +7°C° 0.4 mm 3 m/s 761 mmHg 81%
    07:00 +7°C° 0.4 mm 3 m/s 760 mmHg 84%
    08:00 +8°C° 1.1 mm 3 m/s 760 mmHg 87%
    09:00 +7°C° 1.1 mm 4 m/s 760 mmHg 91%
    10:00 +8°C° 1.1 mm 4 m/s 759 mmHg 94%
    11:00 +8°C° 0.2 mm 5 m/s 759 mmHg 90%
    12:00 +9°C° 0.2 mm 5 m/s 759 mmHg 86%
    13:00 +10°C° 0.2 mm 6 m/s 759 mmHg 81%
    14:00 +10°C° 0 mm 5 m/s 759 mmHg 79%
    15:00 +9°C° 0 mm 5 m/s 759 mmHg 76%
    16:00 +9°C° 0 mm 5 m/s 759 mmHg 73%
    17:00 +8°C° 0 mm 5 m/s 759 mmHg 78%
    18:00 +7°C° 0 mm 4 m/s 759 mmHg 83%
    19:00 +7°C° 0 mm 3 m/s 760 mmHg 88%
    20:00 +5°C° 0 mm 3 m/s 760 mmHg 88%
    21:00 +5°C° 0 mm 3 m/s 760 mmHg 89%
    22:00 +5°C° 0 mm 3 m/s 761 mmHg 90%
    23:00 +4°C° 0 mm 3 m/s 761 mmHg 89%

    10 Abril, Sexta-feira

    Tempo Temperatura Precipitação Vento Pressão Humidade
    00:00 +3°C° 0 mm 3 m/s 761 mmHg 89%
    01:00 +3°C° 0 mm 2 m/s 762 mmHg 88%
    02:00 +3°C° 0 mm 2 m/s 762 mmHg 85%
    03:00 +2°C° 0 mm 2 m/s 762 mmHg 83%
    04:00 +1°C° 0 mm 2 m/s 763 mmHg 80%
    05:00 +2°C° 0 mm 3 m/s 763 mmHg 76%
    06:00 +3°C° 0 mm 3 m/s 763 mmHg 72%
    07:00 +5°C° 0 mm 4 m/s 764 mmHg 68%
    08:00 +6°C° 0 mm 4 m/s 764 mmHg 61%
    09:00 +7°C° 0 mm 5 m/s 765 mmHg 55%
    10:00 +8°C° 0 mm 5 m/s 765 mmHg 49%
    11:00 +9°C° 0 mm 6 m/s 765 mmHg 46%
    12:00 +9°C° 0 mm 6 m/s 765 mmHg 42%
    13:00 +9°C° 0 mm 6 m/s 766 mmHg 38%
    14:00 +9°C° 0 mm 6 m/s 766 mmHg 38%
    15:00 +8°C° 0 mm 5 m/s 766 mmHg 38%
    16:00 +8°C° 0 mm 5 m/s 766 mmHg 38%
    17:00 +6°C° 0 mm 4 m/s 766 mmHg 44%
    18:00 +5°C° 0 mm 4 m/s 767 mmHg 51%
    19:00 +3°C° 0 mm 3 m/s 767 mmHg 57%
    20:00 +3°C° 0 mm 2 m/s 767 mmHg 61%
    21:00 +2°C° 0 mm 2 m/s 767 mmHg 65%
    22:00 +3°C° 0 mm 1 m/s 767 mmHg 69%
    23:00 +2°C° 0 mm 1 m/s 768 mmHg 70%

    11 Abril, Sábado

    Tempo Temperatura Precipitação Vento Pressão Humidade
    00:00 +2°C° 0 mm 1 m/s 768 mmHg 71%
    01:00 +1°C° 0 mm 1 m/s 768 mmHg 72%
    02:00 +1°C° 0 mm 1 m/s 768 mmHg 72%
    03:00 +1°C° 0 mm 1 m/s 768 mmHg 71%
    04:00 0°C° 0 mm 0 m/s 768 mmHg 70%
    05:00 +3°C° 0 mm 1 m/s 768 mmHg 66%
    06:00 +4°C° 0 mm 1 m/s 768 mmHg 62%
    07:00 +5°C° 0 mm 1 m/s 768 mmHg 58%
    08:00 +5°C° 0 mm 2 m/s 768 mmHg 54%
    09:00 +6°C° 0 mm 2 m/s 768 mmHg 50%
    10:00 +7°C° 0 mm 2 m/s 767 mmHg 47%
    11:00 +8°C° 0 mm 3 m/s 767 mmHg 46%
    12:00 +9°C° 0 mm 3 m/s 767 mmHg 45%
    13:00 +9°C° 0 mm 3 m/s 767 mmHg 44%
    14:00 +9°C° 0 mm 3 m/s 766 mmHg 44%
    15:00 +10°C° 0 mm 3 m/s 766 mmHg 44%
    16:00 +10°C° 0 mm 3 m/s 765 mmHg 44%
    17:00 +9°C° 0 mm 3 m/s 765 mmHg 49%
    18:00 +7°C° 0 mm 3 m/s 765 mmHg 55%
    19:00 +5°C° 0 mm 3 m/s 764 mmHg 60%
    20:00 +5°C° 0 mm 3 m/s 764 mmHg 60%
    21:00 +4°C° 0 mm 3 m/s 764 mmHg 60%
    22:00 +4°C° 0 mm 4 m/s 763 mmHg 59%
    23:00 +4°C° 0 mm 4 m/s 763 mmHg 58%

    12 Abril, Domingo

    Tempo Temperatura Precipitação Vento Pressão Humidade
    00:00 +4°C° 0 mm 4 m/s 763 mmHg 57%
    01:00 +4°C° 0 mm 4 m/s 763 mmHg 56%
    02:00 +4°C° 0 mm 4 m/s 762 mmHg 56%
    03:00 +4°C° 0 mm 4 m/s 761 mmHg 57%
    04:00 +4°C° 0 mm 4 m/s 761 mmHg 57%
    05:00 +5°C° 0 mm 4 m/s 760 mmHg 57%
    06:00 +5°C° 0 mm 4 m/s 760 mmHg 57%
    07:00 +6°C° 0 mm 5 m/s 760 mmHg 57%
    08:00 +7°C° 0 mm 4 m/s 759 mmHg 57%
    09:00 +8°C° 0 mm 4 m/s 759 mmHg 57%
    10:00 +10°C° 0 mm 4 m/s 758 mmHg 57%
    11:00 +11°C° 0 mm 4 m/s 758 mmHg 57%
    12:00 +12°C° 0 mm 4 m/s 758 mmHg 58%
    13:00 +13°C° 0 mm 3 m/s 757 mmHg 58%
    14:00 +13°C° 0 mm 3 m/s 757 mmHg 60%
    15:00 +14°C° 0 mm 3 m/s 756 mmHg 62%
    16:00 +14°C° 0 mm 3 m/s 756 mmHg 64%
    17:00 +12°C° 0 mm 3 m/s 756 mmHg 72%
    18:00 +12°C° 0 mm 2 m/s 755 mmHg 79%
    19:00 +10°C° 0 mm 1 m/s 755 mmHg 87%
    20:00 +9°C° 0 mm 2 m/s 755 mmHg 88%
    21:00 +9°C° 0 mm 2 m/s 755 mmHg 89%
    22:00 +8°C° 0 mm 2 m/s 754 mmHg 91%
    23:00 +8°C° 0 mm 2 m/s 754 mmHg 92%
    Mostrar mais